Weather History for KDPA - January, 2014

Change the Weather History Date:

Monday, January 27, 2014

  Actual Average Record
Temperature  
Mean Temperature -2 °F 24 °F  
Max Temperature 4 °F 32 °F 58 °F (2002)
Min Temperature -9 °F 16 °F -9 °F (2014)
Degree Days  
Heating Degree Days 67 41  
Month to date heating degree days 1359 1127  
Since 1 July heating degree days 4145 3554  
Cooling Degree Days 0 0  
Month to date cooling degree days 0 0  
Year to date cooling degree days 0 0  
Moisture  
Dew Point -14 °F    
Average Humidity 63    
Maximum Humidity 72    
Minimum Humidity 55    
Precipitation  
Precipitation 0.00 in 0.04 in 0.44 in (2013)
Month to date precipitation 0.78 1.12  
Year to date precipitation 0.78 1.12  
Sea Level Pressure  
Sea Level Pressure 30.27 in    
Wind  
Wind Speed 15 mph (WNW)    
Max Wind Speed 26 mph    
Max Gust Speed 32 mph    
Visibility 9 miles    
Events      
T = Trace of Precipitation, MM = Missing Value Source: NWS Daily Summary

Daily Weather History Graph

Daily Weather History Graph

Search for Another Location

Airport or City:

Trip Planner

Search our weather history database for the weather conditions in past years. The results will help you decide how hot, cold, wet, or windy it might be!

Date:

Astronomy

Jan. 27, 2014 Rise Set
Actual Time 7:10 AM CST 5:01 PM CST
Civil Twilight 6:40 AM CST 5:31 PM CST
Nautical Twilight 6:06 AM CST 6:05 PM CST
Astronomical Twilight 5:33 AM CST 6:38 PM CST
Moon 3:51 AM CST (1/27) 1:46 PM CST (1/27)
Length of Visible Light 10h 51m
Length of Day
9h 51m
Waning Crescent, 14% of the Moon is Illuminated
Jan 27
Waning Crescent
Jan 30
New
Feb 6
First Quarter
Feb 14
Full
Feb 22
Last Quarter

Hourly Weather History & Observations

Time (CST) Temp. Windchill Dew Point Humidity Pressure Visibility Wind Dir Wind Speed Gust Speed Precip Events Conditions
12:15 AM 3.2 °F -19.5 °F -4.0 °F 72% 29.85 in 7.0 mi WNW 24.2 mph 32.2 mph N/A   Scattered Clouds
12:52 AM 1.9 °F -17.5 °F -5.1 °F 72% 29.92 in 7.0 mi WNW 16.1 mph 25.3 mph N/A   Partly Cloudy
1:52 AM 1.0 °F -19.3 °F -7.1 °F 69% 29.97 in 8.0 mi WNW 17.3 mph 28.8 mph N/A   Clear
2:52 AM -0.0 °F -22.4 °F -8.0 °F 69% 30.02 in 9.0 mi WNW 20.7 mph 27.6 mph N/A   Clear
3:52 AM -0.9 °F -21.9 °F -9.0 °F 69% 30.07 in 10.0 mi West 17.3 mph 25.3 mph N/A   Clear
4:52 AM -2.0 °F -21.9 °F -9.9 °F 69% 30.11 in 10.0 mi WNW 15.0 mph 25.3 mph N/A   Clear
5:52 AM -2.9 °F -22.4 °F -11.0 °F 68% 30.15 in 10.0 mi West 13.8 mph - N/A   Clear
6:52 AM -4.0 °F -25.2 °F -11.9 °F 69% 30.19 in 10.0 mi West 16.1 mph - N/A   Clear
7:52 AM -5.1 °F -27.8 °F -13.0 °F 69% 30.23 in 10.0 mi West 18.4 mph 24.2 mph N/A   Clear
8:52 AM -4.0 °F -26.4 °F -14.1 °F 62% 30.27 in 10.0 mi West 18.4 mph - N/A   Scattered Clouds
9:52 AM -4.0 °F -25.2 °F -14.1 °F 62% 30.29 in 10.0 mi WNW 16.1 mph 26.5 mph N/A   Clear
10:52 AM -4.0 °F -28.6 °F -13.0 °F 65% 30.30 in 8.0 mi West 23.0 mph 27.6 mph N/A   Partly Cloudy
11:52 AM -2.9 °F -23.8 °F -14.1 °F 59% 30.31 in 10.0 mi WNW 16.1 mph 24.2 mph N/A   Partly Cloudy
12:09 PM -2.2 °F -24.1 °F -14.8 °F 55% 30.25 in 10.0 mi West 18.4 mph - N/A   Mostly Cloudy
12:17 PM -2.2 °F -22.9 °F -13.0 °F 60% 30.25 in 9.0 mi WNW 16.1 mph - N/A   Scattered Clouds
12:25 PM -2.2 °F -24.1 °F -13.0 °F 60% 30.25 in 9.0 mi West 18.4 mph - N/A   Mostly Cloudy
12:52 PM -4.0 °F -25.2 °F -14.1 °F 62% 30.32 in 10.0 mi West 16.1 mph 24.2 mph N/A   Scattered Clouds
1:52 PM -4.0 °F -28.1 °F -14.1 °F 62% 30.34 in 10.0 mi West 21.9 mph 28.8 mph N/A   Scattered Clouds
1:59 PM -4.0 °F -25.2 °F -14.8 °F 60% 30.27 in 7.0 mi West 16.1 mph 28.8 mph N/A   Overcast
2:52 PM -4.0 °F -23.7 °F -15.0 °F 59% 30.36 in 10.0 mi WNW 13.8 mph 23.0 mph N/A   Scattered Clouds
3:52 PM -4.0 °F -24.5 °F -16.1 °F 56% 30.39 in 10.0 mi WNW 15.0 mph - N/A   Clear
4:52 PM -6.0 °F -26.3 °F -17.0 °F 59% 30.40 in 10.0 mi West 13.8 mph 20.7 mph N/A   Clear
5:52 PM -7.1 °F -25.9 °F -18.0 °F 59% 30.43 in 10.0 mi WNW 11.5 mph - N/A   Clear
6:52 PM -7.1 °F -25.9 °F -18.0 °F 59% 30.45 in 10.0 mi West 11.5 mph - N/A   Clear
7:52 PM -7.1 °F -25.9 °F -18.0 °F 59% 30.45 in 10.0 mi WNW 11.5 mph - N/A   Clear
8:52 PM -8.0 °F -27.1 °F -18.0 °F 61% 30.45 in 10.0 mi West 11.5 mph - N/A   Clear
9:52 PM -9.0 °F -30.2 °F -18.0 °F 65% 30.47 in 10.0 mi West 13.8 mph - N/A   Clear
10:52 PM -8.0 °F -28.8 °F -18.0 °F 61% 30.46 in 10.0 mi WNW 13.8 mph - N/A   Clear
11:52 PM -9.0 °F -23.8 °F -18.0 °F 65% 30.47 in 10.0 mi West 6.9 mph - N/A   Clear